Precipitable_Water
0.29 0.34 0.40 0.43 0.44 0.47 0.42 0.50 0.78 1.01 0.96 1.01 1.01 1.00 0.97 1.06 1.11 1.19 1.27 1.30 1.27 1.24 1.18 1.12 1.27 1.44 1.40 1.46 1.54 1.51 1.44 1.44 1.45 1.38 1.26 1.24 1.12 0.99 0.99 1.00 0.93 0.88 0.89
0.27 0.29 0.30 0.39 0.43 0.44 0.45 0.51 0.75 1.01 0.95 0.99 1.05 1.03 1.01 1.04 1.11 1.18 1.26 1.28 1.27 1.23 1.15 1.15 1.25 1.41 1.40 1.44 1.47 1.45 1.41 1.42 1.44 1.26 1.16 1.04 0.98 1.01 0.90 0.93 0.94 0.91 0.94
0.29 0.31 0.33 0.34 0.36 0.42 0.46 0.50 0.69 1.01 1.00 1.02 1.05 1.01 1.05 1.06 1.06 1.13 1.15 1.22 1.23 1.23 1.12 1.23 1.29 1.38 1.45 1.44 1.42 1.45 1.40 1.32 1.37 1.39 1.14 1.00 0.90 0.92 0.93 0.88 0.90 0.99 0.99
0.52 0.50 0.45 0.42 0.37 0.42 0.45 0.52 0.61 0.75 1.04 1.02 0.97 0.90 0.88 0.82 0.94 1.06 1.15 1.15 1.16 1.13 1.08 1.25 1.31 1.38 1.46 1.44 1.41 1.47 1.42 1.38 1.26 1.35 1.26 1.15 1.03 0.79 0.71 0.89 0.90 0.94 0.95
0.63 0.62 0.59 0.54 0.47 0.41 0.48 0.56 0.62 0.71 1.05 0.96 0.98 0.94 0.92 0.94 1.03 1.11 1.08 1.06 1.12 1.00 1.13 1.28 1.31 1.33 1.44 1.44 1.46 1.45 1.44 1.42 1.32 1.29 1.24 1.10 1.03 0.93 0.75 0.69 0.78 0.96 0.96
0.70 0.69 0.67 0.62 0.51 0.47 0.49 0.61 0.67 0.75 0.99 1.00 1.00 1.01 0.94 1.00 1.04 1.04 1.00 1.01 0.89 0.96 1.13 1.24 1.31 1.41 1.42 1.43 1.48 1.48 1.44 1.40 1.37 1.35 1.27 1.06 0.98 0.92 0.81 0.79 0.81 0.78 0.85
0.72 0.81 0.72 0.68 0.59 0.51 0.49 0.71 0.72 0.76 0.97 1.00 0.98 1.09 1.07 1.10 1.14 1.03 0.98 0.86 0.88 0.97 1.09 1.22 1.30 1.44 1.46 1.49 1.50 1.46 1.43 1.42 1.35 1.33 1.26 1.14 1.11 1.08 1.05 1.00 0.93 0.88 0.94
0.68 0.81 0.86 0.83 0.70 0.58 0.71 0.78 0.79 0.82 1.01 0.98 1.01 1.08 1.13 1.18 1.14 1.05 0.94 0.88 0.94 1.02 1.15 1.23 1.34 1.41 1.49 1.50 1.47 1.44 1.46 1.44 1.39 1.34 1.30 1.20 1.10 1.12 1.06 0.98 1.02 0.96 1.01
0.61 0.76 0.80 0.86 0.81 0.95 0.90 0.89 0.87 0.88 0.99 1.01 1.04 1.12 1.20 1.14 1.10 1.01 0.89 0.96 0.98 1.07 1.18 1.31 1.43 1.48 1.47 1.46 1.47 1.43 1.42 1.42 1.39 1.35 1.31 1.22 1.16 1.07 1.08 1.08 1.04 0.98 0.88
0.63 0.72 0.83 0.86 0.96 0.94 0.96 0.97 0.94 0.98 1.05 1.08 1.13 1.19 1.12 1.13 1.09 0.94 0.90 0.92 1.00 1.12 1.23 1.31 1.43 1.45 1.47 1.45 1.45 1.41 1.42 1.38 1.38 1.36 1.30 1.21 1.16 1.06 1.06 1.14 1.15 1.10 1.04
0.62 0.70 0.83 0.92 0.97 1.07 1.01 0.94 1.00 1.07 1.13 1.13 1.18 1.15 1.11 1.11 1.01 0.92 0.90 0.94 1.05 1.19 1.26 1.33 1.39 1.43 1.41 1.44 1.42 1.42 1.40 1.33 1.35 1.34 1.24 1.15 1.14 1.15 1.18 1.11 1.09 1.14 1.11
0.63 0.70 0.80 0.86 0.91 0.93 0.97 0.89 1.03 1.09 1.13 1.14 1.16 1.12 1.13 1.05 0.97 0.91 0.91 0.98 1.12 1.23 1.26 1.34 1.35 1.38 1.40 1.41 1.39 1.37 1.37 1.34 1.30 1.28 1.27 1.19 1.22 1.21 1.20 1.19 1.13 1.11 1.08
0.62 0.66 0.76 0.79 0.83 0.86 0.89 0.95 1.05 1.11 1.16 1.16 1.13 1.14 1.03 1.01 0.93 0.89 0.93 1.01 1.14 1.19 1.23 1.30 1.31 1.32 1.34 1.34 1.38 1.37 1.31 1.28 1.31 1.32 1.22 1.15 1.12 1.11 1.11 1.12 1.15 1.15 1.08
0.57 0.62 0.70 0.75 0.80 0.83 0.86 0.91 1.08 1.15 1.17 1.16 1.13 1.08 1.01 1.00 0.90 0.90 0.96 1.03 1.12 1.18 1.21 1.28 1.30 1.30 1.32 1.33 1.34 1.33 1.31 1.28 1.23 1.20 1.24 1.26 1.25 1.20 1.18 1.15 1.11 1.08 1.00
0.52 0.57 0.64 0.72 0.76 0.81 0.85 0.90 0.99 1.14 1.18 1.15 1.14 1.06 1.05 1.04 0.95 0.95 0.98 1.05 1.11 1.15 1.20 1.24 1.27 1.29 1.28 1.27 1.24 1.23 1.22 1.21 1.22 1.28 1.30 1.29 1.25 1.20 1.14 1.09 1.05 0.99 0.92
0.48 0.54 0.59 0.69 0.75 0.77 0.83 0.87 0.95 1.08 1.19 1.17 1.13 1.08 1.05 1.05 0.99 0.96 0.99 1.06 1.10 1.12 1.13 1.12 1.14 1.18 1.17 1.22 1.26 1.29 1.26 1.26 1.25 1.22 1.27 1.28 1.21 1.11 1.15 1.15 1.12 1.06 0.92
0.46 0.51 0.56 0.62 0.73 0.76 0.81 0.84 0.91 1.02 1.07 1.14 1.11 1.05 1.03 0.98 0.95 0.95 0.94 0.96 1.01 1.02 0.99 1.00 1.01 0.99 1.02 1.08 1.13 1.20 1.23 1.21 1.23 1.23 1.18 1.15 1.08 1.10 1.05 1.00 0.98 0.98 0.97
0.47 0.51 0.56 0.59 0.68 0.78 0.81 0.86 0.90 0.95 0.99 1.06 1.04 1.00 0.99 0.90 0.88 0.90 0.89 0.90 0.93 0.94 0.94 0.93 0.93 0.92 0.94 0.99 1.03 1.05 1.03 1.00 0.99 0.98 0.97 0.97 0.98 1.00 1.03 1.00 1.01 1.00 1.02
0.48 0.52 0.55 0.60 0.64 0.74 0.82 0.84 0.86 0.91 0.93 0.96 0.97 0.95 0.93 0.87 0.86 0.85 0.85 0.87 0.86 0.87 0.88 0.89 0.90 0.91 0.93 0.98 1.00 1.01 0.98 0.94 0.93 0.94 0.96 0.98 1.01 1.05 1.08 1.04 1.00 0.98 0.98
0.49 0.51 0.55 0.59 0.63 0.69 0.78 0.81 0.81 0.85 0.87 0.89 0.94 0.93 0.90 0.87 0.86 0.88 0.89 0.88 0.88 0.87 0.87 0.88 0.90 0.93 0.94 0.98 1.01 1.00 0.98 0.94 0.93 0.94 0.96 1.00 1.02 1.04 1.04 1.01 0.97 0.93 0.92
0.49 0.52 0.54 0.58 0.62 0.67 0.72 0.73 0.77 0.77 0.81 0.85 0.92 0.92 0.87 0.83 0.83 0.84 0.86 0.85 0.83 0.82 0.82 0.82 0.83 0.85 0.89 0.92 0.95 0.95 0.94 0.92 0.90 0.90 0.90 0.94 0.99 0.99 0.99 1.00 0.95 0.91 0.92
0.50 0.52 0.53 0.58 0.63 0.65 0.67 0.67 0.69 0.73 0.74 0.82 0.83 0.87 0.85 0.82 0.81 0.84 0.83 0.86 0.86 0.83 0.81 0.81 0.81 0.86 0.89 0.92 0.95 0.95 0.93 0.92 0.90 0.88 0.89 0.88 0.90 0.90 0.90 0.89 0.87 0.86 0.84
0.50 0.52 0.52 0.55 0.60 0.62 0.64 0.63 0.64 0.68 0.71 0.74 0.74 0.78 0.80 0.79 0.80 0.80 0.79 0.79 0.83 0.83 0.80 0.82 0.81 0.82 0.86 0.85 0.87 0.88 0.88 0.87 0.84 0.84 0.83 0.81 0.80 0.78 0.75 0.71 0.67 0.63 0.57
0.48 0.50 0.51 0.52 0.54 0.58 0.60 0.62 0.63 0.65 0.66 0.67 0.69 0.70 0.70 0.70 0.72 0.73 0.73 0.69 0.73 0.75 0.72 0.74 0.75 0.74 0.75 0.77 0.76 0.77 0.76 0.74 0.72 0.70 0.66 0.63 0.59 0.56 0.53 0.51 0.49 0.46 0.44
0.48 0.49 0.49 0.49 0.51 0.55 0.57 0.59 0.60 0.62 0.61 0.63 0.63 0.63 0.64 0.64 0.64 0.66 0.65 0.64 0.66 0.68 0.65 0.65 0.69 0.67 0.65 0.68 0.68 0.66 0.64 0.63 0.60 0.58 0.53 0.48 0.46 0.45 0.43 0.41 0.40 0.40 0.39
0.45 0.46 0.46 0.47 0.48 0.51 0.52 0.55 0.57 0.57 0.57 0.56 0.57 0.58 0.60 0.60 0.59 0.59 0.59 0.62 0.63 0.63 0.63 0.63 0.62 0.63 0.63 0.62 0.59 0.57 0.55 0.53 0.51 0.46 0.42 0.41 0.39 0.38 0.37 0.37 0.36 0.35 0.34
Wind_Speed
29 29 28 28 29 30 30 32 31 29 27 29 28 28 28 27 27 26 25 25 24 24 24 25 25 24 27 27 27 25 25 27 27 28 26 24 24 22 21 22 21 21 22
29 30 31 31 30 28 29 29 29 29 27 28 29 29 28 28 27 26 26 26 26 26 26 25 25 25 26 32 29 28 27 30 31 29 27 23 22 22 23 22 22 22 22
27 26 26 28 30 31 29 28 28 28 28 27 28 28 28 27 26 26 26 26 26 26 26 26 26 27 28 29 27 30 29 31 31 31 29 25 22 22 22 23 23 22 22
23 24 25 27 29 30 31 31 30 29 28 27 28 29 27 26 25 24 24 25 26 26 26 26 26 27 28 29 30 31 31 33 32 32 31 28 25 24 21 23 24 23 24
20 22 24 26 29 29 30 31 30 29 28 28 28 28 27 25 24 24 24 24 24 24 25 26 27 28 29 31 31 33 34 36 34 31 31 30 25 25 22 22 23 23 23
16 19 22 22 25 27 28 30 28 27 27 28 28 27 27 24 23 22 22 23 23 24 25 26 27 29 30 32 32 35 34 38 36 33 32 31 26 25 23 20 23 23 23
15 15 18 19 21 25 27 27 26 25 26 27 27 26 26 24 21 21 21 21 22 22 24 25 27 28 30 33 33 36 35 38 36 36 34 31 28 23 22 19 20 21 20
13 15 14 14 17 20 22 22 24 24 25 25 25 26 24 22 21 20 20 20 21 21 22 24 27 29 32 35 34 33 35 36 38 37 36 32 31 24 22 19 17 18 18
11 14 13 13 15 15 16 19 21 23 24 24 24 24 22 20 19 19 19 20 20 20 21 22 25 28 30 31 34 35 35 35 37 37 34 33 30 27 24 21 20 18 19
10 11 11 12 12 15 17 19 20 21 23 23 22 22 19 19 17 17 17 17 18 19 19 20 22 24 27 31 34 32 31 36 36 36 34 32 31 29 26 24 23 22 21
8 9 10 10 10 11 14 17 20 18 22 22 21 20 18 17 16 15 15 16 16 16 16 17 19 25 25 29 33 32 34 33 37 34 33 31 30 28 28 27 27 26 24
8 8 9 10 9 8 11 14 18 18 22 21 20 18 18 16 15 14 13 13 12 11 12 13 18 23 26 29 33 32 32 34 35 32 31 30 29 29 28 28 28 29 27
9 8 9 11 12 11 11 13 18 18 20 20 20 19 18 17 15 13 12 11 10 9 7 8 12 17 19 24 28 33 31 33 31 29 28 27 29 30 30 29 28 28 28
10 10 9 10 12 12 12 13 18 19 20 20 21 20 19 16 15 14 12 11 10 9 8 9 12 14 17 19 22 25 31 30 28 26 26 26 27 28 28 27 28 27 27
11 11 10 11 12 13 14 16 17 20 20 19 21 21 19 17 15 14 12 11 11 10 10 11 13 14 14 16 20 23 27 29 28 24 23 23 24 24 25 25 26 27 26
11 12 12 12 12 14 16 18 18 19 21 19 20 21 19 17 15 14 12 11 11 11 12 12 13 13 14 16 19 20 21 23 24 24 24 23 23 24 24 25 24 25 26
11 12 12 12 13 14 16 18 20 20 19 21 19 20 18 17 14 14 13 12 10 9 10 11 12 12 11 13 16 18 19 21 21 23 23 22 22 22 23 23 24 24 24
10 11 12 12 13 14 15 17 18 19 19 19 19 20 19 18 17 16 14 14 13 13 12 11 12 12 11 13 15 17 17 17 17 18 19 20 19 20 21 22 21 22 23
8 10 11 12 12 13 14 16 16 18 18 19 20 20 20 19 18 18 17 16 16 15 14 14 14 13 12 13 14 16 17 17 16 16 17 19 21 22 23 24 24 24 24
7 9 10 11 9 10 13 13 15 17 18 19 19 20 20 19 18 18 18 17 16 16 16 15 15 15 16 16 17 19 20 19 20 20 20 20 22 23 25 26 26 25 26
7 8 9 8 7 6 7 11 12 14 16 18 19 20 19 18 18 19 19 19 20 20 19 17 17 16 17 17 18 19 20 21 20 20 20 20 21 22 23 23 24 24 24
7 8 8 7 6 7 3 4 9 13 13 12 15 19 17 18 18 18 18 19 18 19 21 21 19 18 18 18 18 18 19 19 19 19 18 18 18 18 18 20 21 23 25
6 6 6 7 7 8 6 2 3 4 5 7 12 12 14 14 15 15 19 20 19 17 19 19 19 18 18 16 16 17 17 16 18 19 19 19 19 19 20 20 22 23 25
6 6 6 7 7 8 7 6 3 2 4 3 5 9 10 11 11 12 13 16 15 15 17 17 16 18 19 19 20 20 20 20 20 20 20 20 20 21 22 23 23 24 25
6 6 6 7 8 8 7 6 5 4 2 4 6 7 8 11 10 9 11 12 11 14 16 16 17 16 17 19 18 20 22 22 22 22 22 22 23 23 24 24 25 26 27
6 7 7 7 8 8 8 8 6 6 6 6 7 7 9 10 8 10 11 9 11 12 13 15 17 18 18 20 20 21 21 22 23 23 24 24 25 25 26 27 28 29 30
Wind_Direction
245 243 240 237 238 238 237 236 236 238 244 244 244 245 250 253 255 252 253 255 256 258 259 257 247 241 237 231 221 220 214 207 201 192 197 207 213 215 215 214 216 217 217
243 242 241 238 237 237 237 234 235 239 245 245 245 248 250 252 251 250 254 255 256 258 260 252 243 240 238 226 226 222 212 207 204 207 207 208 212 214 216 217 218 219 219
244 242 240 238 237 238 236 234 236 241 246 245 244 247 247 248 246 251 253 253 256 258 258 247 242 239 232 231 225 213 211 207 207 209 207 208 216 212 218 220 221 221 223
242 245 245 244 241 238 236 237 239 243 246 243 242 243 245 242 246 249 253 254 256 260 254 245 242 240 235 228 222 216 213 210 211 209 212 216 216 215 222 223 223 228 228
242 245 246 248 244 239 238 237 238 242 242 240 241 241 237 239 247 250 253 254 257 259 252 246 244 240 234 226 223 220 217 211 209 213 211 213 213 216 223 225 227 229 230
249 251 248 249 246 239 239 234 235 241 240 236 239 238 231 237 243 248 251 254 258 257 253 249 244 238 232 224 223 219 219 210 214 214 211 212 215 219 220 226 227 229 232
254 266 256 252 247 239 234 230 231 240 234 234 235 231 227 237 242 245 251 256 257 257 254 248 242 235 231 222 220 216 215 212 212 212 211 212 214 218 219 227 229 230 233
264 267 268 272 249 239 223 225 231 236 231 230 228 224 229 234 245 249 255 257 259 258 254 250 243 237 231 221 219 214 211 215 211 209 210 213 216 219 221 224 223 227 236
275 265 267 271 244 228 223 227 233 233 226 223 220 222 225 233 244 251 255 260 261 260 257 252 243 235 218 216 212 210 212 210 208 208 212 214 215 220 223 226 233 236 241
279 276 263 270 264 223 229 235 233 232 221 215 214 219 224 234 243 250 256 259 261 263 260 249 239 221 215 213 207 210 209 205 206 209 211 214 219 223 226 231 238 244 246
289 282 262 268 261 232 239 236 222 224 211 209 213 218 226 232 242 250 256 260 261 261 254 247 228 213 213 214 210 209 209 207 206 209 211 217 220 224 230 237 242 245 248
298 291 269 254 255 259 233 225 216 222 212 212 214 219 225 232 240 246 254 257 255 254 248 238 228 217 221 214 207 207 203 203 203 211 217 222 223 229 235 241 244 243 246
303 299 281 258 252 254 248 229 217 220 214 212 217 223 225 232 238 243 248 249 240 236 236 214 199 203 201 197 203 203 203 201 209 215 218 224 230 236 238 240 241 243 245
300 300 288 270 254 249 244 236 222 220 218 219 220 223 224 230 236 236 238 236 230 223 212 195 185 177 182 188 191 198 204 208 210 221 228 231 232 233 237 237 239 242 245
301 300 294 279 260 250 245 238 232 227 222 224 222 222 223 227 229 228 230 227 221 216 206 195 186 187 185 190 197 203 207 211 216 220 227 231 231 235 235 238 240 243 248
298 299 294 286 271 255 248 241 237 232 226 226 221 220 222 223 224 223 221 218 214 211 207 205 207 202 204 208 205 206 210 213 216 223 229 234 236 237 238 242 244 246 249
299 301 300 287 276 262 251 243 238 236 226 220 219 217 220 222 221 220 218 215 208 198 195 195 197 200 208 212 213 215 217 220 225 227 232 233 235 239 239 241 243 248 254
306 303 300 295 280 267 251 242 237 228 224 225 221 219 221 223 221 220 219 218 217 214 211 206 207 210 216 216 214 211 212 215 220 225 229 232 235 239 239 241 246 252 258
309 312 305 300 291 268 250 236 231 226 226 227 220 221 222 221 222 223 224 222 220 219 218 219 220 221 224 222 219 218 219 221 225 230 233 237 242 246 246 249 251 256 261
318 324 325 318 304 282 246 238 228 226 226 219 217 217 219 221 222 224 223 222 221 221 223 225 229 231 233 234 233 231 230 231 236 241 245 250 250 250 251 253 255 257 260
338 337 340 338 332 318 254 230 225 222 225 223 215 216 220 222 225 227 229 229 229 228 229 232 235 237 239 238 236 235 234 235 238 241 247 252 256 255 254 255 257 261 256
346 353 359 359 357 2 329 223 232 222 204 200 211 213 217 223 227 230 231 230 232 232 234 234 237 239 240 238 236 235 233 235 238 238 245 254 257 254 257 258 260 262 264
349 352 1 7 11 11 21 29 177 191 181 195 199 201 212 218 227 231 238 235 230 231 235 237 237 240 227 238 235 233 234 225 236 247 253 256 258 260 262 263 266 268 271
357 351 352 357 353 357 2 355 344 216 200 198 206 210 208 213 222 227 231 217 229 237 231 235 228 235 244 238 233 235 239 243 250 253 255 257 260 263 265 267 271 273 274
355 352 347 346 348 343 348 343 329 310 283 251 237 229 228 230 224 224 231 235 242 235 234 239 242 241 235 237 240 245 249 251 253 254 258 260 263 266 268 271 273 276 277
356 349 347 343 342 340 339 336 328 314 299 283 268 264 249 243 239 241 233 245 245 244 242 247 244 243 242 248 252 255 254 254 256 258 261 263 266 268 271 273 275 278 280